When you browse on this site, cookies collect data to enhance your experience and personalize the content and advertising you see.
Visit our Privacy Policy to learn more. By continuing to use the site, you agree to this use of cookies and data.
  • In Hungary
  • List of Countries
  • For 7 days
  • Water Temperature
  • Satellite Maps
  • Weather Map
  • News
  • Weather Widgets
  • user-avatar
    Login

    Hourly Weather Plovdiv

    Today, 22 April, Monday

    Time Temperature Precipitation Wind Pressure Humidity
    00:00 +8°C° 0 mm 2 mps 742 mmHg 63%
    01:00 +7°C° 0 mm 2 mps 742 mmHg 65%
    02:00 +7°C° 0 mm 2 mps 741 mmHg 65%
    03:00 +7°C° 0 mm 2 mps 741 mmHg 66%
    04:00 +7°C° 0 mm 2 mps 741 mmHg 66%
    05:00 +8°C° 0 mm 1 mps 741 mmHg 67%
    06:00 +10°C° 0 mm 1 mps 741 mmHg 61%
    07:00 +12°C° 0 mm 1 mps 741 mmHg 55%
    08:00 +14°C° 0 mm 0 mps 741 mmHg 47%
    09:00 +18°C° 0 mm 1 mps 741 mmHg 43%
    10:00 +19°C° 0 mm 1 mps 741 mmHg 39%
    11:00 +19°C° 0 mm 2 mps 741 mmHg 35%
    12:00 +20°C° 0 mm 2 mps 741 mmHg 36%
    13:00 +20°C° 0 mm 2 mps 740 mmHg 37%
    14:00 +20°C° 0 mm 3 mps 740 mmHg 38%
    15:00 +20°C° 0.1 mm 2 mps 740 mmHg 43%
    16:00 +19°C° 0.1 mm 2 mps 740 mmHg 49%
    17:00 +18°C° 0.1 mm 2 mps 739 mmHg 54%
    18:00 +16°C° 0 mm 2 mps 740 mmHg 63%
    19:00 +15°C° 0 mm 2 mps 740 mmHg 72%
    20:00 +13°C° 0 mm 2 mps 740 mmHg 81%
    21:00 +12°C° 0 mm 2 mps 740 mmHg 83%
    22:00 +10°C° 0 mm 2 mps 741 mmHg 85%
    23:00 +10°C° 0 mm 2 mps 741 mmHg 87%

    Tomorrow, 23 April, Tuesday

    Time Temperature Precipitation Wind Pressure Humidity
    00:00 +9°C° 0 mm 2 mps 742 mmHg 87%
    01:00 +9°C° 0 mm 2 mps 742 mmHg 86%
    02:00 +8°C° 0 mm 2 mps 742 mmHg 85%
    03:00 +8°C° 0.2 mm 2 mps 742 mmHg 84%
    04:00 +8°C° 0.2 mm 2 mps 742 mmHg 84%
    05:00 +8°C° 0.2 mm 2 mps 742 mmHg 83%
    06:00 +8°C° 0.7 mm 2 mps 742 mmHg 83%
    07:00 +8°C° 0.7 mm 2 mps 742 mmHg 84%
    08:00 +8°C° 0.7 mm 2 mps 743 mmHg 84%
    09:00 +9°C° 0.9 mm 3 mps 743 mmHg 83%
    10:00 +10°C° 0.9 mm 3 mps 743 mmHg 81%
    11:00 +11°C° 0.9 mm 3 mps 743 mmHg 80%
    12:00 +12°C° 0 mm 3 mps 743 mmHg 75%
    13:00 +14°C° 0 mm 4 mps 743 mmHg 69%
    14:00 +15°C° 0 mm 4 mps 742 mmHg 64%
    15:00 +15°C° 0.1 mm 4 mps 742 mmHg 65%
    16:00 +15°C° 0.1 mm 4 mps 742 mmHg 66%
    17:00 +14°C° 0.1 mm 4 mps 742 mmHg 68%
    18:00 +13°C° 0 mm 3 mps 742 mmHg 73%
    19:00 +12°C° 0 mm 2 mps 742 mmHg 79%
    20:00 +10°C° 0 mm 2 mps 742 mmHg 85%
    21:00 +10°C° 0 mm 2 mps 742 mmHg 85%
    22:00 +10°C° 0 mm 2 mps 742 mmHg 85%
    23:00 +9°C° 0 mm 2 mps 743 mmHg 86%

    Day after tomorrow, 24 April, Wednesday

    Time Temperature Precipitation Wind Pressure Humidity
    00:00 +9°C° 0.1 mm 2 mps 743 mmHg 87%
    01:00 +9°C° 0.1 mm 2 mps 743 mmHg 88%
    02:00 +8°C° 0.1 mm 2 mps 743 mmHg 90%
    03:00 +8°C° 0 mm 2 mps 743 mmHg 90%
    04:00 +8°C° 0 mm 2 mps 743 mmHg 91%
    05:00 +8°C° 0 mm 2 mps 743 mmHg 91%
    06:00 +11°C° 0 mm 1 mps 743 mmHg 85%
    07:00 +12°C° 0 mm 1 mps 743 mmHg 79%
    08:00 +14°C° 0 mm 1 mps 744 mmHg 73%
    09:00 +16°C° 0 mm 2 mps 744 mmHg 68%
    10:00 +18°C° 0 mm 2 mps 744 mmHg 63%
    11:00 +20°C° 0 mm 3 mps 744 mmHg 58%
    12:00 +20°C° 0 mm 3 mps 744 mmHg 57%
    13:00 +21°C° 0 mm 3 mps 743 mmHg 56%
    14:00 +22°C° 0 mm 3 mps 743 mmHg 55%
    15:00 +22°C° 0 mm 3 mps 743 mmHg 58%
    16:00 +21°C° 0 mm 3 mps 743 mmHg 60%
    17:00 +21°C° 0 mm 3 mps 743 mmHg 62%
    18:00 +19°C° 0 mm 2 mps 743 mmHg 72%
    19:00 +17°C° 0 mm 2 mps 743 mmHg 82%
    20:00 +14°C° 0 mm 1 mps 743 mmHg 91%
    21:00 +14°C° 0 mm 1 mps 743 mmHg 92%
    22:00 +14°C° 0 mm 1 mps 743 mmHg 93%
    23:00 +13°C° 0 mm 1 mps 744 mmHg 94%

    25 April, Thursday

    Time Temperature Precipitation Wind Pressure Humidity
    00:00 +13°C° 0 mm 1 mps 744 mmHg 94%
    01:00 +12°C° 0 mm 1 mps 744 mmHg 94%
    02:00 +12°C° 0 mm 1 mps 744 mmHg 94%
    03:00 +12°C° 0 mm 1 mps 744 mmHg 94%
    04:00 +12°C° 0 mm 1 mps 744 mmHg 93%
    05:00 +11°C° 0 mm 1 mps 744 mmHg 93%
    06:00 +13°C° 0 mm 1 mps 744 mmHg 88%
    07:00 +15°C° 0 mm 1 mps 744 mmHg 82%
    08:00 +16°C° 0 mm 1 mps 745 mmHg 76%
    09:00 +19°C° 0 mm 1 mps 745 mmHg 70%
    10:00 +19°C° 0 mm 2 mps 745 mmHg 65%
    11:00 +21°C° 0 mm 2 mps 745 mmHg 59%
    12:00 +22°C° 0 mm 3 mps 744 mmHg 58%
    13:00 +22°C° 0 mm 3 mps 744 mmHg 58%
    14:00 +24°C° 0 mm 3 mps 743 mmHg 57%
    15:00 +22°C° 0 mm 3 mps 743 mmHg 61%
    16:00 +21°C° 0 mm 3 mps 743 mmHg 65%
    17:00 +21°C° 0 mm 3 mps 742 mmHg 68%
    18:00 +19°C° 0.1 mm 2 mps 742 mmHg 75%
    19:00 +18°C° 0.1 mm 2 mps 743 mmHg 82%
    20:00 +18°C° 0.1 mm 1 mps 743 mmHg 88%
    21:00 +16°C° 0.1 mm 1 mps 743 mmHg 91%
    22:00 +15°C° 0.1 mm 1 mps 743 mmHg 94%
    23:00 +14°C° 0.1 mm 1 mps 743 mmHg 96%

    26 April, Friday

    Time Temperature Precipitation Wind Pressure Humidity
    00:00 +14°C° 0 mm 1 mps 743 mmHg 95%
    01:00 +14°C° 0 mm 1 mps 743 mmHg 95%
    02:00 +13°C° 0 mm 0 mps 742 mmHg 94%
    03:00 +13°C° 0 mm 0 mps 742 mmHg 94%
    04:00 +12°C° 0 mm 0 mps 742 mmHg 94%
    05:00 +13°C° 0 mm 1 mps 742 mmHg 95%
    06:00 +14°C° 0 mm 1 mps 742 mmHg 89%
    07:00 +15°C° 0 mm 1 mps 742 mmHg 84%
    08:00 +18°C° 0 mm 1 mps 742 mmHg 78%
    09:00 +19°C° 0 mm 1 mps 742 mmHg 73%
    10:00 +20°C° 0 mm 2 mps 742 mmHg 68%
    11:00 +21°C° 0 mm 2 mps 742 mmHg 62%
    12:00 +23°C° 0.1 mm 2 mps 742 mmHg 60%
    13:00 +24°C° 0.1 mm 2 mps 742 mmHg 59%
    14:00 +25°C° 0.1 mm 2 mps 741 mmHg 57%
    15:00 +24°C° 0.1 mm 3 mps 741 mmHg 59%
    16:00 +24°C° 0.1 mm 3 mps 740 mmHg 62%
    17:00 +22°C° 0.1 mm 3 mps 740 mmHg 64%
    18:00 +20°C° 0 mm 2 mps 740 mmHg 73%
    19:00 +18°C° 0 mm 2 mps 740 mmHg 82%
    20:00 +16°C° 0 mm 2 mps 740 mmHg 91%
    21:00 +15°C° 0 mm 1 mps 740 mmHg 91%
    22:00 +15°C° 0 mm 1 mps 740 mmHg 92%
    23:00 +14°C° 0 mm 1 mps 740 mmHg 93%

    27 April, Saturday

    Time Temperature Precipitation Wind Pressure Humidity
    00:00 +13°C° 0 mm 1 mps 740 mmHg 92%
    01:00 +13°C° 0 mm 1 mps 740 mmHg 92%
    02:00 +13°C° 0 mm 1 mps 739 mmHg 92%
    03:00 +13°C° 0 mm 1 mps 739 mmHg 92%
    04:00 +12°C° 0 mm 1 mps 739 mmHg 91%
    05:00 +12°C° 0 mm 1 mps 739 mmHg 91%
    06:00 +14°C° 0 mm 1 mps 739 mmHg 86%
    07:00 +16°C° 0 mm 1 mps 739 mmHg 81%
    08:00 +18°C° 0 mm 1 mps 739 mmHg 75%
    09:00 +20°C° 0 mm 1 mps 739 mmHg 71%
    10:00 +20°C° 0 mm 2 mps 739 mmHg 66%
    11:00 +23°C° 0 mm 2 mps 739 mmHg 61%
    12:00 +23°C° 0.4 mm 2 mps 738 mmHg 61%
    13:00 +24°C° 0.4 mm 3 mps 738 mmHg 61%
    14:00 +24°C° 0.4 mm 3 mps 737 mmHg 62%
    15:00 +24°C° 1.8 mm 3 mps 737 mmHg 65%
    16:00 +22°C° 1.8 mm 3 mps 736 mmHg 69%
    17:00 +21°C° 1.8 mm 3 mps 736 mmHg 73%
    18:00 +19°C° 0.8 mm 2 mps 736 mmHg 77%
    19:00 +18°C° 0.8 mm 2 mps 736 mmHg 82%
    20:00 +16°C° 0.8 mm 1 mps 736 mmHg 86%
    21:00 +16°C° 0.2 mm 1 mps 736 mmHg 86%
    22:00 +15°C° 0.2 mm 1 mps 736 mmHg 87%
    23:00 +15°C° 0.2 mm 1 mps 736 mmHg 87%
    Show more